Flag for U.S.A. Weather past 2 weeks in Fayetteville, North Carolina, U.S.A.

Now
38 °F

Fog.


Feels Like: 38 °F
Forecast: 48 / 79 °F
Wind: No wind

Location: Fayetteville Regional Airport

Current Time: Mar 3, 2015 at 7:30:35 PM

Latest Report: Mar 3, 2015 at 6:53 PM


Visibility: 5 mi

Pressure: 30.16 "Hg

Humidity: 97%

Dew point: 37 °F

Location of FayettevilleLocation

Historic Weather in Fayetteville — Graph

°F

Fayetteville temperature yesterday

Maximum temperature yesterday: 65 °F (at 3:53 PM)
Minimum temperature yesterday: 38 °F (at 12:53 AM)
Average temperature yesterday: 49 °F

Past Weeks' High & Low Weather Summary

 TemperatureHumidityPressure
High65 °F (Mar 2, 3:53 PM)100% (Mar 2, 1:53 AM)30.72 "Hg (Mar 2, 1:53 AM)
Low10 °F (Feb 20, 6:53 AM)22% (Feb 20, 4:53 PM)29.58 "Hg (Feb 26, 3:53 AM)
Average35 °F73%30.19 "Hg
* Reported Feb 16 5:53 PM — Mar 3 5:53 PM, Fayetteville, Weather by CustomWeather, © 2015

Note: Actual official high and low records may vary slightly from our data, if they occured in-between our weather recording intervals... More about our weather records

Advertising

Fayetteville weather history for previous 24 hours

 ConditionsComfort  
Time TempWeatherWind HumidityBarometerVisibility
5:53 PM
Tue, Mar 3
38 °FFog.3 mph97%30.17 "Hg2 mi
4:53 PM38 °FFog.5 mph97%30.20 "Hg2 mi
3:53 PM38 °FFog.5 mph93%30.21 "Hg5 mi
2:53 PM38 °FLight rain. Fog.5 mph93%30.23 "Hg2 mi
2:02 PM37 °FFog.5 mph93%30.26 "Hg2 mi
1:53 PM37 °FFog.3 mph96%30.25 "Hg2 mi
1:04 PM37 °FLight rain. Fog.8 mph89%30.30 "Hg3 mi
12:57 PM37 °FLight rain. Fog.8 mph89%30.31 "Hg2 mi
11:53 AM40 °FOvercast.6 mph60%30.32 "Hg10 mi
10:53 AM40 °FOvercast.9 mph51%30.33 "Hg10 mi
9:53 AM41 °FOvercast.8 mph49%30.35 "Hg10 mi
8:53 AM40 °FOvercast.6 mph53%30.37 "Hg10 mi
7:53 AM40 °FOvercast.12 mph53%30.34 "Hg10 mi
6:53 AM41 °FOvercast.9 mph51%30.35 "Hg10 mi
5:53 AM41 °FOvercast.8 mph53%30.34 "Hg10 mi
4:53 AM41 °FOvercast.7 mph58%30.32 "Hg10 mi
3:53 AM41 °FOvercast.9 mph62%30.32 "Hg10 mi
2:53 AM42 °FOvercast.7 mph68%30.33 "Hg10 mi
1:53 AM42 °FOvercast.12 mph76%30.34 "Hg10 mi
12:53 AM43 °FClear.9 mph86%30.32 "Hg10 mi
11:53 PM
Mon, Mar 2
45 °FClear.9 mph82%30.32 "Hg10 mi
10:53 PM46 °FClear.10 mph79%30.32 "Hg10 mi
9:53 PM49 °FClear.6 mph66%30.30 "Hg10 mi
8:53 PM48 °FClear.5 mph77%30.29 "Hg10 mi
7:53 PM53 °FClear.3 mph66%30.27 "Hg10 mi
Weather by CustomWeather, © 2015

See weather overviewHow to use our weather pages